Home   Weather   Dover   Past weeks
Flag for United Kingdom

Past Weather in Dover, England, United Kingdom — Yesterday and Last 2 Weeks

Now
58 °F

Cool.


Feels Like: 55 °F
Forecast: 62 / 56 °F
Wind: 14 mph from Northwest

Location: Langdon Bay

Current Time: May 25, 2019 at 2:12:23 am

Latest Report: May 25, 2019 at 1:00 am


Visibility: N/A

Pressure: 30.05 "Hg

Humidity: 78%

Dew Point: 51 °F

Location of DoverLocation

Past Weather in Dover — Graph

°F

Dover Temperature Yesterday

Maximum temperature yesterday: 69 °F (at 12:00 pm)
Minimum temperature yesterday: 48 °F (at 4:00 am)
Average temperature yesterday: 57 °F

High & Low Weather Summary for the Past Weeks

 TemperatureHumidityPressure
High69 °F (May 24, 12:00 pm)100% (May 10, 7:00 am)30.73 "Hg (May 10, 7:00 am)
Low39 °F (May 12, 12:00 am)41% (May 15, 1:00 pm)29.69 "Hg (May 18, 5:00 am)
Average53 °F80%30.10 "Hg
* Reported May 10 2:00 am — May 25 1:00 am, Dover. Weather by CustomWeather, © 2019

Note: Actual official high and low records may vary slightly from our data, if they occured in-between our weather recording intervals... More about our weather records

Advertising

Dover Weather History for the Previous 24 Hours

Scroll right to see more
 ConditionsComfort  
Time TempWeatherWind HumidityBarometerVisibility
1:00 am
Sat, May 25
58 °FCool.14 mph78%30.05 "HgN/A
12:00 am59 °FCool.12 mph73%30.05 "HgN/A
11:00 pm
Fri, May 24
59 °FCool.8 mph75%30.04 "HgN/A
10:00 pm60 °FCool.7 mph74%30.04 "HgN/A
9:00 pm60 °FCool.8 mph76%30.03 "HgN/A
8:00 pm57 °FCool.5 mph83%30.03 "HgN/A
7:00 pm58 °FCool.9 mph76%30.02 "HgN/A
6:00 pm57 °FCool.10 mph73%30.03 "HgN/A
5:00 pm60 °FCool.12 mph65%30.03 "HgN/A
4:00 pm62 °FCool.9 mph66%30.04 "HgN/A
3:00 pm60 °FCool.6 mph69%30.05 "HgN/A
2:00 pm58 °FCool.6 mph70%30.05 "HgN/A
1:00 pm59 °FCool.7 mph68%30.05 "HgN/A
12:00 pm69 °FMild.7 mph49%30.04 "HgN/A
11:00 am68 °FMild.9 mph52%30.03 "HgN/A
10:00 am65 °FMild.15 mph56%30.02 "HgN/A
9:00 am61 °FRefreshingly cool.17 mph59%30.01 "HgN/A
8:00 am59 °FCool.16 mph69%30.01 "HgN/A
7:00 am55 °FCool.15 mph79%30.00 "HgN/A
6:00 am52 °FCool.12 mph86%29.99 "HgN/A
5:00 am48 °FCool.7 mph97%29.98 "HgN/A
4:00 am48 °FCool.12 mph96%29.98 "HgN/A
3:00 am48 °FCool.10 mph93%29.98 "HgN/A
2:00 am49 °FCool.12 mph88%29.98 "HgN/A
Weather by CustomWeather, © 2019

See weather overview